Lake Rosalie Weather Center

Moon Phase Calendar



Lake Rosalie Water Level
Online Cameras

 


      

Current Conditions in Babson Park
7/5/2022 6:41:24 PM

88°F
Feels Like 101
Clouds
Humidity
74%
Pressure
30.03"
Wind
3 mph (ENE)
Dew Point
79°F
UV Index
0/10 (Low)
Visibility
6 mi

Hourly Forecast

Date & Time Tue, Jul 5
6:00 PM
Tue, Jul 5
7:00 PM
Tue, Jul 5
8:00 PM
Tue, Jul 5
9:00 PM
Tue, Jul 5
10:00 PM
Tue, Jul 5
11:00 PM
Wed, Jul 6
12:00 AM
Wed, Jul 6
1:00 AM
Wed, Jul 6
2:00 AM
Wed, Jul 6
3:00 AM
Wed, Jul 6
4:00 AM
Wed, Jul 6
5:00 AM
Wed, Jul 6
6:00 AM
Wed, Jul 6
7:00 AM
Wed, Jul 6
8:00 AM
Wed, Jul 6
9:00 AM
Wed, Jul 6
10:00 AM
Wed, Jul 6
11:00 AM
Wed, Jul 6
12:00 PM
Wed, Jul 6
1:00 PM
Wed, Jul 6
2:00 PM
Wed, Jul 6
3:00 PM
Wed, Jul 6
4:00 PM
Wed, Jul 6
5:00 PM
Wed, Jul 6
6:00 PM
Wed, Jul 6
7:00 PM
Wed, Jul 6
8:00 PM
Wed, Jul 6
9:00 PM
Wed, Jul 6
10:00 PM
Wed, Jul 6
11:00 PM
Thu, Jul 7
12:00 AM
Thu, Jul 7
1:00 AM
Thu, Jul 7
2:00 AM
Thu, Jul 7
3:00 AM
Thu, Jul 7
4:00 AM
Thu, Jul 7
5:00 AM
Thu, Jul 7
6:00 AM
Thu, Jul 7
7:00 AM
Thu, Jul 7
8:00 AM
Thu, Jul 7
9:00 AM
Thu, Jul 7
10:00 AM
Thu, Jul 7
11:00 AM
Thu, Jul 7
12:00 PM
Thu, Jul 7
1:00 PM
Thu, Jul 7
2:00 PM
Thu, Jul 7
3:00 PM
Thu, Jul 7
4:00 PM
Thu, Jul 7
5:00 PM
Condition
Clouds

Clouds

Clouds

Clouds

Clouds

Clouds

Clouds

Clouds

Clouds

Clear

Clear

Clear

Clear

Clear

Clear

Clouds

Clear

Clouds

Clouds

Clouds

Clouds

Clouds

Clouds

Clouds

Clouds

Clouds

Rain

Rain

Rain

Rain

Clouds

Clouds

Clouds

Clouds

Clouds

Clouds

Clouds

Clouds

Clouds

Clouds

Clouds

Clouds

Clouds

Clouds

Clouds

Clouds

Clouds

Clouds
Temperature 88°F88°F88°F86°F84°F81°F79°F78°F77°F77°F76°F76°F76°F76°F79°F82°F85°F87°F90°F92°F94°F94°F92°F88°F88°F89°F86°F82°F80°F79°F78°F77°F77°F77°F76°F76°F76°F76°F78°F82°F85°F87°F90°F92°F94°F94°F92°F91°F
Feels Like 101°F101°F100°F96°F92°F87°F80°F79°F79°F78°F78°F78°F77°F78°F79°F88°F91°F95°F97°F99°F100°F100°F98°F95°F95°F96°F92°F88°F84°F79°F80°F79°F79°F78°F78°F78°F77°F77°F80°F87°F91°F94°F97°F98°F100°F98°F97°F97°F
Cloudiness 94%94%94%95%92%76%56%46%39%8%7%7%7%7%7%12%10%15%19%23%28%60%69%78%78%74%72%38%29%24%22%26%28%56%77%84%74%61%59%25%19%19%21%25%29%91%95%97%
Visibility 6 mi6 mi6 mi6 mi6 mi6 mi6 mi6 mi6 mi6 mi6 mi6 mi6 mi6 mi6 mi6 mi6 mi6 mi6 mi6 mi6 mi6 mi6 mi6 mi6 mi6 mi6 mi6 mi6 mi6 mi6 mi6 mi6 mi6 mi6 mi6 mi6 mi6 mi6 mi6 mi6 mi6 mi6 mi6 mi6 mi6 mi6 mi6 mi
Precipitation 5%4%8%28%29%29%29%29%25%0%0%2%2%2%2%4%2%2%2%0%5%26%9%10%6%11%34%69%68%71%72%70%70%5%1%1%0%0%0%0%0%0%0%0%0%0%2%3%
Humidity 71%74%72%72%76%79%83%85%87%89%90%91%93%93%86%78%69%61%55%50%46%44%50%60%59%60%66%74%80%85%87%88%89%89%90%90%90%90%83%75%68%61%56%50%44%42%48%50%
Dew Point 78°F79°F77°F76°F76°F74°F73°F73°F73°F73°F73°F73°F73°F74°F74°F74°F73°F72°F71°F71°F70°F69°F71°F72°F72°F73°F73°F73°F73°F74°F74°F74°F73°F73°F73°F73°F72°F72°F73°F73°F73°F72°F72°F71°F69°F67°F69°F70°F
Pressure 30.03"30.03"30.03"30.03"30"30.03"30.03"30.03"30"30"30"30"30"30.03"30.03"30.06"30.06"30.03"30.03"30.03"30"29.97"29.97"29.97"29.97"29.97"29.97"30"30"30.03"30"30"30"30"30"30"30"30.03"30.03"30.06"30.06"30.06"30.06"30.03"30.03"30"30"30"
Wind Speed 10 mph10.2 mph10.4 mph9.6 mph9 mph6.7 mph5.1 mph4.5 mph5 mph4.2 mph4.4 mph4.9 mph4.8 mph4.2 mph4.3 mph5 mph4.6 mph4.4 mph4.4 mph4.6 mph5 mph6.7 mph10.3 mph11.3 mph8.9 mph8.2 mph7 mph6.8 mph6.1 mph6.2 mph6.4 mph5.8 mph5.2 mph5.1 mph5.3 mph5.3 mph5.3 mph5.1 mph5.3 mph6.2 mph6.4 mph6.1 mph5.3 mph4.5 mph3.9 mph3.8 mph3 mph3.5 mph
Wind
Direction
99°
E
97°
E
94°
E
95°
E
108°
ESE
118°
ESE
123°
ESE
115°
ESE
122°
ESE
116°
ESE
113°
ESE
117°
ESE
121°
ESE
123°
ESE
129°
SE
135°
SE
139°
SE
139°
SE
132°
SE
130°
SE
119°
ESE
118°
ESE
127°
SE
134°
SE
135°
SE
131°
SE
122°
ESE
120°
ESE
130°
SE
138°
SE
145°
SE
144°
SE
147°
SSE
148°
SSE
164°
SSE
165°
SSE
164°
SSE
159°
SSE
157°
SSE
168°
SSE
172°
S
175°
S
168°
SSE
160°
SSE
144°
SE
135°
SE
141°
SE
127°
SE

Daily Forecast

Date High Low Precip. Humidity
Today
Jul 5

Clouds
94 °F
75 °F
38%
46%
Wednesday
Jul 6

Rain
94 °F
76 °F
71%
50%
Thursday
Jul 7

Rain
94 °F
76 °F
72%
44%
Friday
Jul 8

Clouds
95 °F
76 °F
26%
45%
Saturday
Jul 9

Clouds
91 °F
78 °F
2%
52%
Sunday
Jul 10

Rain
93 °F
78 °F
41%
54%
Monday
Jul 11

Rain
94 °F
77 °F
35%
42%
Tuesday
Jul 12

Clouds
95 °F
78 °F
8%
43%
Wednesday
Jul 13

Rain
95 °F
79 °F
77%
45%
Thursday
Jul 14

Rain
94 °F
76 °F
89%
48%
Friday
Jul 15

Rain
94 °F
76 °F
92%
46%
Saturday
Jul 16

Rain
93 °F
77 °F
67%
45%
Sunday
Jul 17

Rain
93 °F
75 °F
83%
42%
Monday
Jul 18

Rain
85 °F
75 °F
70%
64%
Tuesday
Jul 19

Rain
91 °F
74 °F
71%
55%
Wednesday
Jul 20

Rain
97 °F
75 °F
49%
39%

Temperature 8-14 Day Outlook



Precipitation 8-14 Day Outlook




Quick Links
Lake Rosalie News
Lake Rosalie Photos
Lake Rosalie Videos




About Us
Contact Us
Site Map
Search Site
Advertise With Us
   
Rosalie.LakesOnline.com
THE LAKE ROSALIE WEBSITE

Copyright 2022, Lakes Online
Privacy    |    Legal